User: anonymous   Login
Location: Great Malvern
(52.1167°N, 2.3167°W)
Time: 12:33:22
(UTC+00:00)
Language:

Cosmos 1733 - Orbit

View from above orbital plane
View from above orbital plane
View from above satellite
View from above satellite

Ground track
Ground track

The orbit data is extracted from the following two-line orbital elements,

1 16611U 86018A   21162.89767493  .00000447  00000-0  20449-4 0  9991
2 16611  82.4896  36.1696 0011454 336.0193  24.0506 15.17856780929426
Epoch (UTC): 11 June 2021 21:32:39
Eccentricity: 0.0011454
inclination: 82.4896°
perigee height: 504 km
apogee height: 520 km
right ascension of ascending node: 36.1696°
argument of perigee: 336.0193°
revolutions per day: 15.17856780
mean anomaly at epoch: 24.0506°
orbit number at epoch: 92942

The dashed part of the orbit path shows where the satellite is in the earth's shadow,  

DLR